sat.trackr.live / text

‹ back to catalog

STARLINK-35879

NORAD 66960 · 2025-288B

PAYLOAD ACTIVE UNKNOWN

§ Identity

Operator
Country
US
Launch date
2025-12-08
Launch site
AFETR
Launch vehicle
Mass (kg)
RCS (m²)

Purposes: comms

External: N2YO · Heavens-Above · Gunter

§ Orbital elements

Epoch: 2026-09-20T07:49:45.676704Z

Period
94.27 min
Inclination
43.0027°
Eccentricity
0.0001273
Mean motion
15.27586634 rev/d
Perigee alt
482.2 km
Apogee alt
483.9 km
Semi-major
6,861.2 km
B*
4.6886e-4
RAAN
4.3304°
Arg perigee
278.1937°
Mean anomaly
81.8770°
Rev number
4,505

§ Raw data

STARLINK-358791 66960U 25288B   26263.32622311  .00012665  00000+0  46886-3 0  99952 66960  43.0027   4.3304 0001273 278.1937  81.8770 15.27586634 45051

JSON: /api/v1/satellites/66960 · /tle

For live sub-satellite position, see the globe view (requires WebGL).

§ Visibility from observer

Set your observer location to see the next 7 days of passes ≥ 10°. The values pass through the URL so the page stays shareable.

No JS? Fill the form by hand. The geolocation button needs JavaScript.